User: anonymous   Login
Location: Ciserano
(45.5833°N, 9.6000°E)
Time: 02:13:42
(UTC+00:00)
Language:

SJ 16-02 - Orbit

View from above orbital plane
View from above orbital plane
View from above satellite
View from above satellite

Ground track
Ground track

The orbit data is extracted from the following two-line orbital elements,

1 41634U 16043A   21059.90057198  .00000276  00000-0  34837-4 0  9992
2 41634  75.0052 313.1899 0006448  38.8171 321.3457 14.85772995253320
Epoch (UTC): 28 February 2021 21:36:49
Eccentricity: 0.0006448
inclination: 75.0052°
perigee height: 606 km
apogee height: 615 km
right ascension of ascending node: 313.1899°
argument of perigee: 38.8171°
revolutions per day: 14.85772995
mean anomaly at epoch: 321.3457°
orbit number at epoch: 25332

The dashed part of the orbit path shows where the satellite is in the earth's shadow,  

DLR